Flag for Uruguay Weather past 2 weeks in Montevideo, Uruguay

Now
48 °F

Clear.


Feels Like: 48 °F
Forecast: 47 / 66 °F
Wind: No wind

Location: Carrasco


UV Index: 3 (Moderate)

Visibility: 10 mi


Pressure: 30.01 "Hg

Humidity: 94%

Dew point: 46 °F

Location of MontevideoLocation

Historic Weather in Montevideo

°F

Montevideo temperature yesterday

Maximum temperature yesterday: 66 °F (at 1:00 PM)
Minimum temperature yesterday: 54 °F (at 10:00 PM)
Average temperature yesterday: 61 °F

Past Weeks' High & Low Weather Summary

 TemperatureHumidityPressure
High82 °F (Apr 4, 2:00 PM)100% (Apr 5, 11:00 PM)30.21 "Hg (Apr 5, 11:00 PM)
Low46 °F (Apr 15, 6:00 AM)43% (Apr 15, 3:00 PM)29.56 "Hg (Apr 12, 6:00 AM)
Average64 °F81%29.92 "Hg
* Reported Apr 4 3:00 AM — Apr 19 3:00 AM, Montevideo, Weather by CustomWeather, © 2014

Note: Actual official high and low records may vary slightly from our data, if they occured in-between our weather recording intervals... More about our weather records

Advertising

Historic Weather Conditions — Data for Previous 24 hours

 ConditionsComfort  
Time TempWeatherWind HumidityBarometerVisibility
3:00 AM
Apr 19
46 °FClear.No wind100%30.01 "Hg5 mi
2:00 AM48 °FClear.No wind94%30.01 "Hg10 mi
1:00 AM50 °FClear.No wind88%29.98 "Hg10 mi
12:00 AM48 °FClear.No wind94%29.98 "Hg10 mi
11:00 PM
Apr 18
54 °FClear.No wind82%29.98 "Hg10 mi
10:00 PM54 °FClear.No wind82%29.98 "Hg10 mi
9:00 PM55 °FClear.No wind77%29.95 "Hg10 mi
8:00 PM57 °FClear.3 mph72%29.95 "Hg10 mi
7:00 PM59 °FClear.No wind68%29.95 "Hg10 mi
6:00 PM61 °FClear.5 mph63%29.95 "Hg10 mi
5:00 PM63 °FSunny.7 mph59%29.95 "Hg10 mi
4:00 PM64 °FSunny.6 mph56%29.92 "Hg10 mi
3:00 PM64 °FSunny.10 mph56%29.95 "Hg10 mi
2:00 PM66 °FPassing clouds.8 mph56%29.95 "HgN/A
1:00 PM66 °FPassing clouds.8 mph56%29.98 "HgN/A
12:00 PM64 °FPassing clouds.8 mph64%29.98 "HgN/A
11:00 AM64 °FPassing clouds.9 mph60%29.98 "HgN/A
10:00 AM64 °FPassing clouds.9 mph60%29.98 "HgN/A
9:00 AM63 °FScattered clouds.9 mph68%29.98 "HgN/A
8:00 AM59 °FScattered clouds.7 mph72%29.98 "HgN/A
7:00 AM59 °FPassing clouds.6 mph72%29.95 "HgN/A
6:00 AM59 °FPassing clouds.6 mph82%29.95 "HgN/A
5:00 AM59 °FPassing clouds.7 mph82%29.95 "HgN/A
4:00 AM61 °FPassing clouds.9 mph77%29.98 "HgN/A
Weather by CustomWeather, © 2014

See weather overview